Location: Mt. Bigelow
(32.4165°N, 110.7345°W)
Time: 13:47:31
(UTC-07:00)

Hubble Space Telescope - Visible Passes

Search period start: 22 February 2018 00:00
Search period end: 04 March 2018 00:00
Orbit: 537 x 541 km, 28.5° (Epoch: 21 February)

Date Brightness Start Highest point End Pass type
(mag) Time Alt. Az. Time Alt. Az. Time Alt. Az.
22 Feb 2.1 04:57:58 34° SE 04:57:58 34° SE 05:01:01 10° E visible
23 Feb 2.4 04:48:18 30° SE 04:48:18 30° SE 04:50:47 10° E visible
23 Feb 1.4 06:23:55 10° WSW 06:27:53 47° S 06:31:51 10° ESE visible
24 Feb 2.8 04:38:36 25° ESE 04:38:36 25° ESE 04:40:32 10° E visible
24 Feb 1.5 06:13:57 12° WSW 06:17:35 44° S 06:21:31 10° ESE visible
25 Feb 3.2 04:28:54 19° ESE 04:28:54 19° ESE 04:30:15 10° ESE visible
25 Feb 1.6 06:04:15 15° WSW 06:07:16 40° S 06:11:09 10° ESE visible
26 Feb 3.6 04:19:12 15° ESE 04:19:12 15° ESE 04:19:58 10° ESE visible
26 Feb 1.7 05:54:33 19° WSW 05:56:58 36° SSW 06:00:46 10° SE visible
27 Feb 3.9 04:09:32 11° ESE 04:09:32 11° ESE 04:09:41 10° ESE visible
27 Feb 1.8 05:44:53 22° WSW 05:46:39 32° SSW 05:50:19 10° SE visible
28 Feb 2.0 05:35:15 24° SW 05:36:19 27° SSW 05:39:50 10° SE visible
01 Mar 2.2 05:25:40 23° SSW 05:25:58 23° SSW 05:29:16 10° SE visible
02 Mar 2.6 05:16:09 19° S 05:16:09 19° S 05:18:36 10° SSE visible
03 Mar 3.0 05:06:41 14° S 05:06:41 14° S 05:07:47 10° SSE visible
